User: anonymous   Login
Location: Strawberry
(45.6646°N, 111.9596°W)
Time: 09:23:01
(UTC+00:00)
Language:

NUDT-PHONESAT - Orbit

View from above orbital plane
View from above orbital plane
View from above satellite
View from above satellite

Ground track
Ground track

The orbit data is extracted from the following two-line orbital elements,

1 40900U 15049B   22329.94232064  .00039455  00000-0  77725-3 0  9997
2 40900  97.3879 349.7382 0009731  68.9459 335.7396 15.47072213399475
Epoch (UTC): 25 November 2022 22:36:56
Eccentricity: 0.0009731
inclination: 97.3879°
perigee height: 418 km
apogee height: 432 km
right ascension of ascending node: 349.7382°
argument of perigee: 68.9459°
revolutions per day: 15.47072213
mean anomaly at epoch: 335.7396°
orbit number at epoch: 39947

The dashed part of the orbit path shows where the satellite is in the earth's shadow,  

DLR